Location: Arbon
(43.0005°N, 0.7472°E)
Time: 18:43:12
(UTC+00:00)

ARIANE 5 R/B - Pass Details

Date: 07 August 2020
Orbit: 749 x 795 km, 98.6° (Epoch: 23 September)

Event Time Altitude Azimuth Distance (km) Brightness Sun altitude
Rises 02:08:05 0° 22° (NNE) 3,296 7.1 -24.1°
Reaches altitude 10° 02:10:36 10° 31° (NNE) 2,367 6.1 -23.8°
Maximum altitude 02:15:24 36° 97° (E) 1,245 3.8 -23.3°
Enters shadow 02:18:00 22° 147° (SSE) 1,657 4.0 -23.1°
